sat.trackr.live / text

‹ back to catalog

STARLINK-35232

NORAD 65518 · 2025-198AC

PAYLOAD ACTIVE UNKNOWN

§ Identity

Operator
Country
US
Launch date
2025-09-05
Launch site
AFETR
Launch vehicle
Mass (kg)
RCS (m²)

Purposes: comms

External: N2YO · Heavens-Above · Gunter

§ Orbital elements

Epoch: 2026-09-20T21:21:57.260448Z

Period
93.85 min
Inclination
53.1601°
Eccentricity
0.0001285
Mean motion
15.34382930 rev/d
Perigee alt
461.9 km
Apogee alt
463.6 km
Semi-major
6,840.9 km
B*
5.5290e-4
RAAN
80.2254°
Arg perigee
118.6214°
Mean anomaly
241.4918°
Rev number
5,856

§ Raw data

STARLINK-352321 65518U 25198AC  26263.89024607  .00018340  00000+0  55290-3 0  99942 65518  53.1601  80.2254 0001285 118.6214 241.4918 15.34382930 58564

JSON: /api/v1/satellites/65518 · /tle

For live sub-satellite position, see the globe view (requires WebGL).

§ Visibility from observer

Set your observer location to see the next 7 days of passes ≥ 10°. The values pass through the URL so the page stays shareable.

No JS? Fill the form by hand. The geolocation button needs JavaScript.